Cloud_Cover
5 22 98 15 14 5 6 5 5 5 0 0 0 0 0 0 0 5 66 0 0 3 0 0 4 9 18 19 0 0 0 0 3 4 6 29 75 53 60 0 7 18 4 0 0 0 0 0 2
5 41 95 85 49 52 11 4 0 0 0 0 0 1 1 0 82 93 25 4 2 1 0 0 0 0 17 14 0 0 0 0 0 0 8 48 32 65 15 9 0 0 0 0 0 0 0 1 1
5 16 96 100 81 92 9 0 0 0 0 0 0 0 0 0 91 39 57 0 19 0 0 0 0 0 19 0 0 0 0 0 0 0 0 0 0 0 0 0 0 79 68 0 0 0 0 0 0
6 97 97 29 83 5 0 0 0 0 0 0 0 0 0 44 41 62 72 0 5 0 70 28 0 0 11 0 0 0 0 0 0 0 0 0 0 0 0 0 0 1 11 4 0 0 0 0 0
70 43 25 73 52 5 5 1 0 0 0 0 0 0 38 57 45 85 100 0 0 0 36 43 0 0 0 0 0 0 0 0 0 3 3 1 0 0 0 0 0 0 0 0 0 0 0 0 0
96 16 29 91 80 5 5 5 0 0 0 4 5 0 2 63 79 100 74 3 0 0 7 71 33 0 0 0 0 0 0 0 0 0 0 1 5 3 0 0 0 0 0 0 0 0 0 0 0
98 64 11 100 92 31 43 5 5 4 3 5 5 3 43 100 100 100 20 64 0 0 1 51 33 26 15 6 5 0 0 0 0 2 1 0 0 1 2 0 1 4 5 4 2 0 0 0 0
99 100 28 89 86 97 94 5 5 5 5 23 5 5 5 64 100 100 1 4 4 0 0 0 4 66 80 1 8 5 5 5 5 5 5 5 1 5 5 2 3 5 2 52 16 33 0 0 0
100 100 99 76 48 73 79 13 5 5 5 5 5 5 15 32 100 59 8 33 39 14 3 0 3 39 0 0 21 26 6 0 0 5 5 5 5 5 9 4 0 0 2 46 35 8 0 0 0
100 99 54 64 64 68 91 95 65 6 5 5 5 5 25 100 98 28 2 58 96 44 51 1 0 3 20 5 3 9 4 5 11 20 32 22 17 9 14 21 29 5 5 5 5 5 5 13 5
100 96 44 72 100 77 62 95 100 66 48 18 51 26 100 100 52 3 4 9 96 41 72 38 8 44 51 20 8 2 1 5 10 9 1 10 5 5 19 51 66 34 6 1 4 5 5 5 4
100 100 99 100 100 100 76 86 67 90 100 33 5 6 99 97 75 5 5 0 79 100 100 100 35 42 52 37 4 6 10 6 0 5 52 90 98 87 78 22 26 4 0 4 5 5 5 5 16
100 100 78 99 100 100 100 72 5 72 100 100 60 5 98 69 99 0 0 0 37 96 100 100 25 20 17 25 11 3 2 0 0 1 31 29 6 2 7 6 5 5 2 5 5 5 7 39 8
100 100 38 97 100 68 100 90 96 5 46 5 54 5 20 96 89 14 29 35 98 39 11 6 3 0 0 0 2 4 0 0 0 0 2 5 5 5 9 15 21 12 38 30 41 30 26 49 58
100 100 45 58 35 14 100 96 56 20 58 7 29 5 4 25 62 18 5 5 0 0 4 0 3 0 5 4 0 3 5 5 2 0 5 5 6 61 40 47 50 63 69 56 65 67 87 87 90
100 100 84 99 100 100 16 100 27 42 36 95 12 5 5 17 20 21 20 0 0 0 3 5 5 3 5 3 1 3 5 4 8 13 41 43 39 32 29 38 35 67 100 100 99 100 59 69 76
100 100 100 100 100 100 56 100 100 16 100 56 15 5 5 17 23 19 0 0 0 0 4 4 4 5 5 1 9 65 14 15 52 56 56 48 40 30 34 48 38 64 71 81 81 87 95 78 44
100 100 100 100 92 100 97 100 100 88 100 7 5 5 5 5 4 3 3 2 0 2 2 0 5 5 5 5 7 23 27 91 64 84 88 59 38 16 12 50 68 5 7 14 16 38 20 49 53
100 100 100 100 100 100 100 100 94 85 80 6 5 5 5 11 34 36 27 41 5 2 4 9 7 5 5 29 100 100 100 100 98 99 23 96 5 95 8 5 5 10 6 4 100 100 100 64 5
100 100 100 100 100 100 100 100 100 40 32 5 5 17 5 40 35 6 5 58 5 5 5 5 74 48 22 43 100 100 95 89 100 91 67 100 100 72 5 5 5 6 55 100 100 92 38 33 34
100 100 100 100 100 100 100 100 100 100 100 100 100 87 11 36 38 82 90 61 85 76 50 29 95 58 52 71 100 100 100 100 100 100 98 100 69 59 7 5 5 5 11 5 12 29 98 91 8
100 100 100 100 100 100 100 94 76 100 97 100 100 93 92 99 86 100 100 100 100 92 78 73 100 60 58 87 100 100 100 96 74 100 100 87 72 50 31 6 12 5 5 5 8 5 5 27 8
100 100 100 100 100 100 100 100 100 92 99 100 100 100 100 100 100 98 100 100 100 100 100 100 100 100 100 100 100 100 99 100 100 100 100 100 100 91 85 49 75 58 84 100 70 84 67 50 38
100 100 100 100 100 100 100 100 100 76 100 100 100 100 100 100 100 100 100 100 100 100 100 100 100 100 100 100 100 100 100 100 100 100 100 98 99 100 100 100 100 100 95 100 100 100 100 100 88
100 100 100 100 100 100 100 100 100 100 100 100 100 100 100 100 100 100 100 100 100 100 100 100 100 100 100 100 100 100 100 100 100 100 100 100 100 100 100 100 100 100 100 100 100 100 100 100 100
100 100 100 100 100 100 100 100 100 100 100 100 100 100 100 100 100 100 100 100 100 100 100 100 100 100 100 100 100 100 100 100 100 100 100 100 100 100 100 100 100 100 100 100 100 91 99 100 100
100 100 100 100 100 100 100 100 100 100 100 100 100 100 100 100 100 100 100 100 100 100 100 100 100 100 100 100 100 100 100 100 100 100 100 100 100 100 100 100 100 100 100 100 100 100 100 100 100
100 100 100 100 93 100 100 100 100 100 100 100 100 100 100 100 100 100 100 100 100 100 100 100 100 100 100 100 100 100 100 100 100 100 100 100 100 100 100 100 100 100 100 100 100 100 100 100 100
100 100 100 97 100 100 100 100 100 100 100 100 100 100 100 100 100 100 100 100 100 100 100 100 100 100 100 100 100 100 100 100 100 100 95 100 100 100 100 100 100 100 100 100 100 100 100 100 100
100 100 100 100 100 100 100 100 100 100 100 100 100 100 100 100 100 100 100 100 100 100 100 100 100 100 100 100 100 100 100 100 100 100 100 100 100 100 100 100 100 100 100 100 100 100 100 100 100